Location: Bishopstone
(51.0167°N, 1.9000°W)
Time: 02:08:18
(UTC+00:00)

SL-8 Rocket - Pass Details

Date: 16 September 2019
Orbit: 956 x 991 km, 82.9° (Epoch: 19 October)

Event Time Altitude Azimuth Distance (km) Brightness Sun altitude
Rises 19:51:24 0° 351° (N) 3,681 7.5 -14.7°
Reaches altitude 10° 19:53:59 10° 356° (N) 2,725 6.7 -15.1°
Maximum altitude 20:00:09 60° 76° (ENE) 1,100 4.0 -15.9°
Enters shadow 20:04:45 18° 152° (SSE) 2,164 5.4 -16.6°
